Retour au catalogue

KUIPER-00110

ActifCommunicationsLEO
NORAD 65148·PAYLOAD·🇺🇸 United States

Lancé Aug 11, 2025 depuis Cape Canaveral Space Force Station

Loading…

Prochains Passages (prochaines 24 heures)

TLE

FraisSource: CelesTrak SupGP

Époque: Sep 14, 2026, 21:24 UTC

1 65148C 25171S   26257.89214120  .00006880  00000+0  90059-3 0  2573
2 65148  51.9001  51.4800 0000587 113.6788 103.2323 14.79927388    17

Suivez KUIPER-00110 en temps réel avec AllMySat

Download on the App Store